sat.trackr.live / text

‹ back to catalog

STARLINK-3364

NORAD 51152 · 2022-005BA

PAYLOAD ACTIVE UNKNOWN

§ Identity

Operator
Country
US
Launch date
2022-01-19
Launch site
AFETR
Launch vehicle
Mass (kg)
RCS (m²)

Purposes: comms

External: N2YO · Heavens-Above · Gunter

§ Orbital elements

Epoch: 2026-09-19T22:51:52.633728Z

Period
93.90 min
Inclination
53.1593°
Eccentricity
0.0001242
Mean motion
15.33548238 rev/d
Perigee alt
464.4 km
Apogee alt
466.1 km
Semi-major
6,843.4 km
B*
2.7326e-5
RAAN
142.3510°
Arg perigee
89.0124°
Mean anomaly
271.1020°
Rev number
25,812

§ Raw data

STARLINK-33641 51152U 22005BA  26262.95269252  .00000526  00000+0  27326-4 0  99972 51152  53.1593 142.3510 0001242  89.0124 271.1020 15.33548238258124

JSON: /api/v1/satellites/51152 · /tle

For live sub-satellite position, see the globe view (requires WebGL).

§ Visibility from observer

Set your observer location to see the next 7 days of passes ≥ 10°. The values pass through the URL so the page stays shareable.

No JS? Fill the form by hand. The geolocation button needs JavaScript.